OBJECT D, 61872

Orbit data source: Space-Track

You're viewing an Uncataloged Satellite

Recently launched and/or uncataloged satellites may have evolving metadata. Metadata may include but not limited to: Owner, Maufacturer, Bus, Motor, and Mission.

OBJECT D, 61872 is a satellite owned by Hangtian Hongtu (CN) in SSO that was launched on Sat, 09 Nov 2024 UTC via a CHANG ZHENG 2C launch vehicle from the Jiuquan Satellite Launch Center, China (JSC). Unknown objects in Earth's orbit typically refer to objects detected orbiting the Earth but have not yet been identified or cataloged. These objects could be anything from previously untracked satellites, spent rocket stages, debris from satellite collisions, or even natural meteoroids temporarily captured by Earth's gravity.

Loading next visibility...
Identifier
61872, 2024-203D
Orbit
SSO
Country
Flag of CNCN / PRC
Related business
Manufacturer
Yinhe
Mission
Operational Commercial Radar Imaging
Bus & Motor
PIESAT, Unknown motor
Mass
270 kg wet, 270 kg dry
Launch date (UTC)
2024-11-09 (11 months ago)
Launch vehicle
CHANG ZHENG 2C
Launch site
Jiuquan Satellite Launch Center, China (JSC)
Object type
Unknown
Shape & HBR
Box + 2 Pan, 2.0 m
Radar Cross Section
2.315 m², Large (>1 m²)

Expand to show TLE details & history
Last TLE update: 12 hours ago

TLE from 12 hours ago
0 OBJECT D
1 61872U 24203D   25287.30220227  .00013309  00000-0  59305-3 0  9998
2 61872  97.4566 354.0990 0014167 125.0929 235.1638 15.21466005 51453
Epoch: 2025-10-14T07:15Z
TLE epoch observation values (Epoch: 2025-10-14T07:15:10.276Z)
Latitude
0.00007°
Longitude
-137.78641°
Altitude
510.087 km
Speed
7.606 km/s
True Right ascension
23h 36m 23s
True Declination
0° 00' 00"
Sunlit
Object was in full shadow at epoch
Visualization orbit readout
Latitude
Unknown
Longitude
Unknown
Altitude
Unknown
Speed
Unknown
Apparent Right ascension
Unknown
Apparent Declination
Unknown
Sunlit
N/A
Visualization observer readout
Local Sidereal Time
13:50:33
Azimuth
Unknown
Elevation
Unknown
Doppler factor
Unknown
Orbital elements
Apogee altitude
508.126 km
Perigee altitude
488.642 km
Semi-major axis
6,876.521 km
Eccentricity
0.00142
Inclination
97.4566°
RAAN
354.099°
Arg. of periapsis
125.0929°
True anomaly
235.03069°
Mean anomaly
235.1638°
Eccentric anomaly
235.09723°
Mean motion
3.80619 °/min
Orbital period
94.58 mins
BSTAR
0.00059305
Loading maneuver chart data...
Computing Atmospheric mass density...
Loading historical data...
Loading historical data...
Loading historical data...
Loading historical data...
Loading historical data...
Loading historical data...
Loading historical data...
Other satellites on launch #203 in the year 2024 (2024-11-09 UTC)

Documentation

Showing up to 5 results
|